AO-07 1 07530U 74089B 24305.84431074 -.00000021 00000-0 16103-3 0 9996 2 07530 101.9886 301.8212 0012110 182.4108 243.4322 12.53681741286404 UO-11 1 14781U 84021B 24305.87335570 .00006748 00000-0 74283-3 0 9990 2 14781 97.7237 271.2631 0007896 359.8946 0.2268 14.87858171189808 AO-27 1 22825U 93061C 24305.43569238 .00000729 00000-0 29640-3 0 9994 2 22825 98.7713 359.5251 0009111 45.7970 314.3959 14.30635234622094 FO-29 1 24278U 96046B 24305.53492044 .00000023 00000-0 59220-4 0 9990 2 24278 98.5835 222.3263 0349739 194.9427 164.1168 13.53219344392875 NOAA-15 1 25338U 98030A 24305.85520648 .00000864 00000-0 37444-3 0 9996 2 25338 98.5583 330.0790 0009174 287.1325 72.8851 14.26773125376928 GO-32 1 25397U 98043D 24305.82089097 .00000629 00000-0 29300-3 0 9991 2 25397 98.9415 274.7137 0002218 107.9915 252.1505 14.24171967367086 ISS 1 25544U 98067A 24305.58058399 .00035180 00000-0 60166-3 0 9990 2 25544 51.6392 359.7717 0008966 122.2149 237.9710 15.50886758479706 NO-44 1 26931U 01043C 24305.39377778 .00001044 00000-0 42360-3 0 9991 2 26931 67.0520 339.6169 0007511 263.6808 96.3438 14.31464820205448 SO-50 1 27607U 02058C 24305.80882589 .00005841 00000-0 77922-3 0 9997 2 27607 64.5542 161.2872 0029950 40.5559 319.7769 14.80142650176748 CO-55 1 27844U 03031E 24305.45994791 .00001734 00000-0 77994-3 0 9998 2 27844 98.6790 310.6346 0010792 107.0703 253.1659 14.23591270107177 CO-57 1 27848U 03031J 24305.44958085 .00001515 00000-0 69171-3 0 9992 2 27848 98.6823 310.7879 0010524 122.0752 238.1449 14.22986269106965 RS-22 1 27939U 03042A 24305.86990968 .00005902 00000-0 96839-3 0 9992 2 27939 98.3060 104.4707 0011563 353.8396 153.0037 14.71028511128363 NOAA-18 1 28654U 05018A 24305.77298691 .00000862 00000-0 48179-3 0 9990 2 28654 98.8647 21.5466 0014689 39.7537 320.4709 14.13396451 2559 CO-58 1 28895U 05043F 24305.80461784 .00008464 00000-0 14446-2 0 9999 2 28895 98.2209 82.1032 0014290 286.6030 73.3606 14.69130546 14730 CO-65 1 32785U 08021C 24305.47926664 .00017190 00000-0 13891-2 0 9996 2 32785 97.7739 270.0555 0008512 230.9005 129.1462 14.99846969895886 AAUSAT2 1 32788U 08021F 24305.40869751 .00086381 00000-0 29094-2 0 9995 2 32788 97.6039 287.1850 0008413 72.4048 287.8111 15.30381256899150 CO-66 1 32791U 08021J 24305.20161220 .00032563 00000-0 20448-2 0 9990 2 32791 97.7066 276.1723 0004027 170.8244 189.3059 15.09194182896992 RS-30 1 32953U 08025A 24305.80774259 .00000047 00000-0 26705-3 0 9997 2 32953 82.5071 4.5093 0020134 164.2301 195.9411 12.43151803746101 PRISM 1 33493U 09002B 24305.74780645 .00097532 00000-0 30057-2 0 9991 2 33493 98.1845 6.2008 0009216 135.9664 224.2311 15.33180724859862 NOAA-19 1 33591U 09005A 24305.81495398 .00000797 00000-0 45029-3 0 9992 2 33591 99.0308 2.9589 0012824 266.5008 93.4697 14.13178040810926 SRMSAT 1 37841U 11058D 24305.59757773 .00001074 00000-0 44131-3 0 9990 2 37841 19.9726 51.6442 0011749 153.6875 322.4689 14.11261940673850 RS-40 1 38735U 12041C 24305.48911894 .00000045 00000-0 25614-3 0 9992 2 38735 82.4732 84.8925 0016600 281.8378 78.0840 12.42619515556100 ZACUBE-1 1 39417U 13066B 24305.60103714 .00017862 00000-0 17149-2 0 9994 2 39417 97.7503 258.8639 0050161 69.1953 291.4629 14.92165490591902 Delfi-N3xt 1 39428U 13066N 24305.51497237 .00029036 00000-0 33625-2 0 9995 2 39428 97.8339 220.5330 0095422 7.0930 353.1608 14.82157340586250 GOMX-1 1 39430U 13066Q 24305.73648071 .00008018 00000-0 12904-2 0 9990 2 39430 97.7086 171.8222 0136492 177.5530 182.6372 14.65691560583035 LO-74 1 39440U 13066AA 24305.80664194 .00013128 00000-0 14461-2 0 9991 2 39440 97.8252 246.8160 0066112 185.0311 175.0248 14.86057632589806 AO-73 1 39444U 13066AE 24305.86594169 .00024939 00000-0 21742-2 0 9997 2 39444 97.7356 262.6769 0046847 47.4064 313.1094 14.95994216591102 DTUSAT-2 1 40030U 14033W 24305.83418631 .00023488 00000-0 17791-2 0 9998 2 40030 98.0277 262.3426 0012059 83.1821 277.0775 15.02224295563693 EO-80 1 40032U 14033Y 24305.79909372 .00023489 00000-0 17767-2 0 9996 2 40032 98.0175 262.2586 0011607 40.0815 320.1263 15.02281516563670 XW-2C 1 40906U 15049H 24305.85023424 .00129464 00000-0 15910-2 0 9994 2 40906 97.4640 327.5505 0007067 144.3530 215.8200 15.59816622505630 XW-2D 1 40907U 15049J 24305.84244860 .00586814 13587-3 19291-2 0 9992 2 40907 97.4474 332.7805 0005013 144.0857 216.0754 15.90483623506044 LILACSAT-2 1 40908U 15049K 24305.83489369 .00026515 00000-0 88548-3 0 9999 2 40908 97.5216 315.9301 0009639 219.8006 140.2529 15.30967996504364 XW-2B 1 40911U 15049N 24304.86913159 .00476744 00000-0 19700-2 0 9990 2 40911 97.4476 331.4330 0005300 142.1601 218.0042 15.84669160505737 IO-86 1 40931U 15052B 24270.29994034 .00002074 00000-0 19195-3 0 9996 2 40931 5.9998 350.0993 0012711 76.7416 283.4129 14.78150863486449 ChubuSat-2 1 41338U 16012B 24305.22924042 .00017377 00000-0 10005-2 0 9991 2 41338 31.0004 233.5289 0010059 168.3483 191.7390 15.11227284478179 ChubuSat-3 1 41339U 16012C 24305.83175953 .00015910 00000-0 93851-3 0 9990 2 41339 31.0071 229.1496 0010281 176.9299 183.1404 15.10342869478236 Horyu-4 1 41340U 16012D 24305.01159290 .00042787 00000-0 17545-2 0 9995 2 41340 31.0010 166.6300 0009029 289.3400 70.6266 15.23025474478826 Lapan A3 1 41603U 16040E 24305.82588117 .00009410 00000-0 35614-3 0 9995 2 41603 97.1404 313.5041 0011007 346.2824 13.8115 15.27081671464063 Pratham 1 41783U 16059A 24305.51042447 .00003639 00000-0 67460-3 0 9992 2 41783 97.8317 318.4733 0031000 309.8265 50.0212 14.65550008432504 CAS-2T 1 41847U 16066G 24305.54811865 .00006591 00000-0 95049-3 0 9996 2 41847 98.4482 15.8232 0351484 126.3454 237.0723 14.42248489419141 CAS-4B 1 42759U 17034B 24305.83565657 .00055833 00000-0 14841-2 0 9995 2 42759 43.0130 169.8617 0013891 205.4025 154.6148 15.37355164408368 CAS-4A 1 42761U 17034D 24305.82357418 .00061743 00000-0 16288-2 0 9995 2 42761 43.0168 168.1493 0014486 214.0324 145.9603 15.37541016408378 D-SAT 1 42794U 17036AF 24305.41320572 .00023315 00000-0 14805-2 0 9995 2 42794 97.4926 282.6323 0105560 45.8017 315.1821 15.04279694401174 TechnoSat 1 42829U 17042E 24305.76259881 .00011248 00000-0 93852-3 0 9995 2 42829 97.3862 119.4079 0011056 339.3771 20.7005 14.98680463397618 AO-91 1 43017U 17073E 24305.36720553 .00022450 00000-0 12757-2 0 9995 2 43017 97.5517 176.2444 0196591 196.6403 162.8309 14.97928601376012 S-Net D 1 43186U 18014G 24305.14807257 .00018123 00000-0 11972-2 0 9991 2 43186 97.5755 204.7161 0008103 264.8117 95.2186 15.07438540368964 S-Net B 1 43187U 18014H 24305.15114269 .00017866 00000-0 11805-2 0 9995 2 43187 97.5762 204.6783 0008865 258.6747 101.3485 15.07426437368960 S-Net A 1 43188U 18014J 24304.68440935 .00018952 00000-0 12519-2 0 9995 2 43188 97.5769 204.3430 0008685 261.3554 98.6690 15.07425276368899 S-Net C 1 43189U 18014K 24305.68419063 .00017226 00000-0 11375-2 0 9997 2 43189 97.5784 205.3031 0010429 248.7261 111.2854 15.07446728367593 Ten-Koh 1 43677U 18084G 24305.37834056 .00011084 00000-0 94334-3 0 9998 2 43677 98.0771 103.2280 0012621 285.2551 74.7275 14.97928235327090 PO-101 1 43678U 18084H 24305.87473336 .00007036 00000-0 62494-3 0 9998 2 43678 98.0858 108.1114 0007459 304.2429 55.8085 14.96451820327354 QO-100 1 43700U 18090A 24305.49994301 .00000161 00000-0 00000+0 0 9992 2 43700 0.0136 266.0636 0001492 350.1433 349.9033 1.00273546 21967 MinXSS-2 1 43758U 18099A 24305.61120904 .00033714 00000-0 18060-2 0 9996 2 43758 97.5372 6.2352 0014379 204.3991 155.6562 15.14839717323398 AO-95 1 43770U 18099N 24305.63189413 .00024420 00000-0 14963-2 0 9994 2 43770 97.5275 0.7928 0011208 254.2914 105.7079 15.10110464323126 RANGE-B 1 43772U 18099Q 24305.58654494 .00043549 00000-0 22099-2 0 9998 2 43772 97.5072 4.9047 0005212 149.7793 210.3741 15.16767699323349 RANGE-A 1 43773U 18099R 24305.40410140 .00015698 00000-0 11052-2 0 9999 2 43773 97.4848 354.3507 0011054 223.6171 136.4183 15.05074278322907 MOVE-II 1 43780U 18099Y 24305.63935451 .00073899 00000-0 26987-2 0 9999 2 43780 97.5028 8.1929 0004694 211.0530 149.0432 15.27815806323665 SNUSat 2 1 43782U 18099AA 24305.41351889 .00021132 00000-0 13505-2 0 9999 2 43782 97.4969 358.9455 0013329 189.9949 170.1016 15.08578383323086 SnugLite 1 43784U 18099AC 24305.57233042 .00025327 00000-0 15427-2 0 9993 2 43784 97.4789 358.4001 0003781 185.7905 174.3281 15.10362870323194 ITASat 1 1 43786U 18099AE 24305.56004687 .00018625 00000-0 12206-2 0 9990 2 43786 97.4932 359.1275 0014791 244.7390 115.2306 15.07661228323090 EAGLET 1 1 43790U 18099AJ 24305.43690891 .00015340 00000-0 10718-2 0 9996 2 43790 97.5122 359.4526 0012305 222.5510 137.4764 15.05351598322756 ESEO 1 43792U 18099AL 24305.73773877 .00006967 00000-0 55081-3 0 9995 2 43792 97.4921 355.6199 0007237 178.7139 181.4105 15.00928078322672 CSIM 1 43793U 18099AM 24305.73087212 .00077358 00000-0 28802-2 0 9999 2 43793 97.5163 10.0984 0009867 192.2660 167.8340 15.27126001323526 JO-97 1 43803U 18099AX 24305.13084533 .00031346 00000-0 18076-2 0 9997 2 43803 97.5025 1.0539 0008748 187.6258 172.4841 15.12274244323209 Suomi 100 1 43804U 18099AY 24305.40229490 .00025414 00000-0 15179-2 0 9991 2 43804 97.5098 1.0463 0014262 189.3439 170.7527 15.10998067323211 ISAT 1 43879U 18111D 24305.17278616 .00040868 00000-0 20626-2 0 9999 2 43879 97.6056 210.6428 0008831 248.6873 111.3417 15.16953673319981 UWE-4 1 43880U 18111E 24305.73421678 .00034020 00000-0 18020-2 0 9999 2 43880 97.5996 210.8267 0012149 259.9070 100.0791 15.15263346318067 Sparrow 1 43881U 18111F 24305.68602124 .00040887 00000-0 20228-2 0 9992 2 43881 97.6165 213.3500 0006660 303.2214 56.8380 15.17667381318138 Prox-1 1 44339U 19036A 24305.58048772 .00027050 00000-0 41855-2 0 9996 2 44339 23.9990 64.9570 0009048 85.7747 274.3782 14.71805028285326 SONATE 1 44400U 19038Q 24305.44685889 .00068725 00000-0 14364-2 0 9997 2 44400 97.7140 306.6231 0012154 353.1740 6.9340 15.45176774295037 Taurus 1 1 44530U 19059C 24305.82516723 .00027033 00000-0 56761-2 0 9990 2 44530 98.5881 70.0661 0009758 354.0997 6.0085 14.59533177271669 Duchifat 3 1 44854U 19089C 24305.70210769 .00049242 00000-0 19240-2 0 9997 2 44854 36.9542 295.7069 0010377 184.0505 176.0162 15.24862030268982 TO-108 1 44881U 19093C 24305.84098922 .00004856 00000-0 58087-3 0 9997 2 44881 97.8179 19.9700 0013035 232.2548 127.7486 14.84551753263315 FloripaSat 1 1 44885U 19093G 24305.79619934 .00019502 00000-0 18510-2 0 9997 2 44885 97.8343 27.5432 0011097 218.2511 141.7922 14.93518174263736 RS-44 1 44909U 19096E 24305.14726992 .00000032 00000-0 76809-4 0 9994 2 44909 82.5262 14.4266 0218503 93.3520 269.2601 12.79735407226367 UPMSat 2 1 46276U 20061E 24305.43751161 .00053610 00000-0 12194-2 0 9990 2 46276 97.2802 10.6876 0001497 55.9805 304.1585 15.42808752231112 AmicalSat 1 46287U 20061R 24305.08704606 .00198804 00000-0 24842-2 0 9993 2 46287 97.3287 13.8888 0000950 117.1212 243.0141 15.59164621230550 SALSAT 1 46495U 20068K 24305.82295493 .00020340 00000-0 10340-2 0 9999 2 46495 97.8337 268.9959 0011884 194.9174 165.1709 15.16834133224992 SOMP 2b 1 47445U 21006AJ 24305.65709640 .00633314 00000-0 22936-2 0 9998 2 47445 97.2900 8.0412 0000294 321.9413 38.1838 15.87053913209909 IDEASSat 1 47458U 21006AX 24305.60641125 .00296357 00000-0 22605-2 0 9995 2 47458 97.3071 7.5852 0002458 91.6226 268.5318 15.71333327209750 CubeSX-Sirius-HSE 1 47951U 21022V 24305.84122220 .00081906 00000-0 22249-2 0 9993 2 47951 97.4417 204.6383 0012750 28.7594 331.4351 15.37186742199470 CubeSX-HSE 1 47952U 21022W 24305.84458153 .00078131 00000-0 21063-2 0 9990 2 47952 97.4416 204.7700 0012780 27.7488 332.4435 15.37438624199482 KSU-Cubesat 1 47954U 21022Y 24305.20139689 .00113246 00000-0 24636-2 0 9998 2 47954 97.4419 206.3253 0011151 27.7943 332.3898 15.43823935199241 GRBAlpha 1 47959U 21022AD 24305.80259126 .00079711 00000-0 21468-2 0 9996 2 47959 97.4417 204.8948 0012718 27.7160 332.4760 15.37462694198308 Orbicraft-Zorkiy 1 47960U 21022AE 24305.68125008 .00083961 00000-0 19747-2 0 9994 2 47960 97.4457 206.7056 0011640 28.7619 331.4268 15.41602014199072 TUBIN 1 48900U 21059X 24305.80756162 .00051404 00000-0 13366-2 0 9992 2 48900 97.6608 95.3185 0005647 325.9665 34.1217 15.38744361185866 LEDSAT 1 49069U 21073D 24305.74208962 .00057684 00000-0 17356-2 0 9997 2 49069 97.4228 16.5974 0016352 157.2198 202.9773 15.34038206177315 CUTE 1 49263U 21088D 24305.58939022 .00064931 00000-0 22311-2 0 9999 2 49263 97.4810 11.3791 0010631 326.1837 33.8724 15.29813631170417 TeikyoSat 4 1 49396U 21102B 24305.54684983 .00007989 00000-0 55486-3 0 9992 2 49396 97.4424 345.8036 0013279 165.0692 195.0929 15.05734638163268 Z-Sat 1 49399U 21102E 24305.83034333 .00013778 00000-0 82718-3 0 9996 2 49399 97.4142 348.0402 0020333 144.0137 216.2466 15.10851363163601 KOSEN 1 1 49402U 21102H 24305.82188029 .00020994 00000-0 11234-2 0 9994 2 49402 97.4065 350.0438 0018752 126.2617 234.0352 15.14915804163808 HO-113 1 50466U 21131B 24305.88331738 .00003329 00000-0 10668-2 0 9994 2 50466 98.5234 30.3145 0005186 82.9498 277.2280 14.40172572149678 IRIS-A 1 51044U 22002BN 24305.65737596 .00072691 00000-0 16448-2 0 9992 2 51044 97.3673 12.4667 0003831 261.9618 98.1195 15.42873150155375 Planetum 1 1 52738U 22057G 24305.81348118 .00410349 00000-0 25575-2 0 9996 2 52738 97.5707 79.3998 0005403 313.1068 46.9744 15.75756227135775 Foresail-1 1 52766U 22057AL 24305.30292248 .00068223 00000-0 15281-2 0 9996 2 52766 97.5963 75.0736 0007556 4.9408 355.1913 15.43175175135356 SNUGLITE 2 1 52899U 22065F 24305.86717307 .00006170 00000-0 12419-2 0 9994 2 52899 98.1392 84.6116 0008627 87.1798 273.0390 14.61876681124229 IO-117 1 53106U 22080B 24304.53297825 -.00000003 00000-0 00000+0 0 9994 2 53106 70.1303 145.5071 0008350 77.3743 282.7850 6.42557747 53963 FO-118 1 54684U 22167C 24305.87675821 .00123323 00000-0 23900-2 0 9993 2 54684 97.6159 95.4559 0007319 8.1192 352.0174 15.47215036105297 SSS-2B 1 56184U 23054G 24305.81390490 .00233747 00000-0 21851-2 0 9991 2 56184 97.3446 206.6535 0008007 68.6240 291.5874 15.66506316 87300 SO-120 1 56992U 23084BU 24305.79256222 .00143159 00000-0 27655-2 0 9997 2 56992 97.5394 68.2047 0010005 261.0907 98.9210 15.47209454 77147 MRC-100 1 56993U 23084BV 24305.30447505 .00213530 00000-0 31505-2 0 9991 2 56993 97.5371 68.8791 0009824 260.2846 99.7298 15.54574749 77151 UmKA 1 (RS40S) 1 57172U 23091G 24305.87779300 .00018221 00000-0 11006-2 0 9996 2 57172 97.5948 356.6684 0016373 20.1183 340.0689 15.10634523 74101 CubeBel-2 (EU11S) 1 57175U 23091K 24305.85984171 .00022716 00000-0 13068-2 0 9995 2 57175 97.5943 356.8340 0014753 31.4039 328.8069 15.12372314 74111 VERONIKA 1 58261U 23174F 24305.83860029 .00070672 00000-0 22863-2 0 9994 2 58261 97.4464 20.1087 0010408 120.8374 239.3893 15.31739271 54548 KAFASAT 1 58317U 23174BP 24305.82907556 .00114449 00000-0 29218-2 0 9994 2 58317 97.4402 21.5371 0008222 95.8214 264.3969 15.39012304 54651 ENSO 1 58470U 23185J 24305.84399768 .00059077 00000-0 18929-2 0 9990 2 58470 97.4096 11.7205 0011071 151.2262 208.9593 15.32097232 50999 EIRSAT-1 1 58472U 23185L 24305.85644600 .00066500 00000-0 20136-2 0 9993 2 58472 97.4090 11.9759 0010496 151.8767 208.3045 15.33872847 51011 SO-121 1 58567U 23174CY 24305.72753785 .01460243 10227-2 47773-2 0 9990 2 58567 97.4230 25.0026 0005483 299.2609 60.8116 15.90803700 54879 SONATE-2 1 59112U 24043Q 24305.61248923 .00035219 00000-0 14286-2 0 9993 2 59112 97.4938 68.5842 0013530 174.4567 185.6822 15.24451921 36543 MO-122 1 60209U 24125G 24305.52568949 .00034440 00000-0 13912-2 0 9996 2 60209 97.3038 155.0401 0022904 202.0305 157.9951 15.24434638 18145 GRBBeta 1 60237U 24128C 24305.82636755 .00012789 00000-0 10598-2 0 9993 2 60237 61.9924 127.2222 0023677 358.1672 1.9326 14.98947709 17069 Curium One 1 60242U 24128H 24305.79899721 .00019314 00000-0 15849-2 0 9994 2 60242 61.9831 127.5054 0023722 347.1383 12.9098 14.99084124 17068 ROBUSTA-3A 1 60243U 24128J 24305.21515291 .00018574 00000-0 15379-2 0 9994 2 60243 61.9896 129.7551 0021711 343.4713 16.5666 14.98793298 16976 CatSat 1 60246U 24125J 24305.53093938 .00025060 00000-0 10350-2 0 9990 2 60246 97.2856 156.0242 0050086 155.9060 204.4536 15.22826115 16253 SR-0 DemoSAT 1 60455U 24147B 24305.83827965 .04212272 31259-1 63770-2 0 9996 2 60455 37.3600 170.7757 0022651 278.7609 81.0609 16.06927264 11908 Binar 4 1 60952U 98067WS 24305.42143623 .01772537 18510-2 39005-2 0 9999 2 60952 51.6211 353.4025 0010816 37.4028 322.7732 15.97763208 9870 CosmoGirlSat 1 60953U 98067WT 24305.54302854 .00290595 00000-0 22439-2 0 9990 2 60953 51.6318 355.7629 0005475 76.7588 283.4020 15.70469186 9856 Sakura 1 60954U 98067WU 24305.17842307 .00372920 00000-0 25105-2 0 9998 2 60954 51.6298 357.0745 0006090 62.2863 297.8753 15.73470121 9809 Binar 2 1 60956U 98067WW 24305.18675758 .01039544 00000-0 34748-2 0 9991 2 60956 51.6162 355.5742 0010054 40.5195 319.6556 15.87068220 9816 Binar 3 1 60957U 98067WX 24305.53311940 .01458481 11140-2 34387-2 0 9994 2 60957 51.6141 352.6316 0012904 38.1729 322.0191 15.96279057 11875 CySat-1 1 61501U 98067WZ 24305.33554776 .00188206 00000-0 24751-2 0 9993 2 61501 51.6372 0.3839 0007827 111.2390 248.9438 15.57286221 3609 DORA 1 61502U 98067XA 24305.43893581 .00442576 00000-0 47395-2 0 9997 2 61502 51.6348 359.5743 0009112 76.2507 283.9501 15.61813560 3613 /EX
